Current weather by "City, St" or "zip code"  
 

Current Conditions: Olney-Noble Airport, IL

Overcast


46.0 F

Last Updated on Oct 29 2020, 8:55 pm CDT
Humidity: 85%
Wind Speed: NW 11.5 G 16.1 mph
Barometer 30.02 in
Dewpoint: 41.7 F
Visibility: 10.00 mi
Precip: --
Heat Index: NA
Wind Chill: 41 F
Current conditions at:

Olney-Noble Airport, IL (KOLY)

Lat: 38.72133 Lon: 88.1799

Local Radar Image active severe weather and emergency alerts image image weather storm and storm spotter reports image weather observation monitoring service image
Local
Radar
Active
Alerts
Storm Reports Obs
Monitoring

Sign-up For Email & Text Message Weather Alert Notification Services



Advertise Here

Observation History for Olney-Noble Airport, IL


Time Wind
(mph)
Vis
(mi)
Weather Precip (in) Temperature (F) Relative
Humidity
Wind
Chill
(F)
Heat
Index
(F)
Pressure
Air Dwpt altimeter
(in)
sea level
(mb)
Rmks
8:55 pm CDT NW 11.5 G 16.1 10.00 Overcast -- 46.0 41.7 85% 41 NA 30.02 M
7:55 pm CDT NW 11.5 G 16.1 10.00 Partly Cloudy -- 46.0 44.6 97% 41 NA 29.98 M
6:55 pm CDT NW 13.8 G 20.7 10.00 Mostly Cloudy -- 47.0 46.2 96% 41 NA 29.93 M
5:55 pm CDT NW 15.0 10.00 Overcast -- 49.0 47.7 96% 43 NA 29.87 M
4:55 pm CDT NW 16.1 G 24.2 10.00 Light Rain 00.01 48.0 47.3 96% 42 NA 29.84 M
3:55 pm CDT NW 10.4 G 16.1 10.00 Overcast -- 50.0 49.1 97% 46 NA 29.79 M
2:55 pm CDT N 9.2 G 16.1 10.00 Light Rain -- 49.0 48.4 97% 45 NA 29.76 M
1:55 pm CDT N 11.5 G 16.1 10.00 Light Rain 00.03 48.0 46.6 96% 43 NA 29.75 M
12:55 pm CDT N 13.8 G 19.6 5.00 Rain 00.06 46.0 44.8 96% 40 NA 29.77 M
11:55 am CDT N 9.2 10.00 Rain -- 47.0 46.2 97% 43 NA 29.76 M
10:55 am CDT N 10.4 G 21.9 10.00 Overcast -- 47.0 46.0 97% 42 NA 29.73 M
9:55 am CDT N 10.4 G 16.1 10.00 Overcast -- 47.0 46.4 97% 42 NA 29.72 M
9:30 am CDT N 12.7 G 17.3 10.00 Overcast -- 47.0 46.4 97% 41 NA 29.72 M
8:55 am CDT N 10.4 G 19.6 10.00 Overcast -- 46.0 45.1 95% 41 NA 29.71 M
7:55 am CDT N 12.7 G 24.2 7.00 Rain -- 46.0 45.5 97% 40 NA 29.68 M
6:55 am CDT N 13.8 G 24.2 10.00 Light Rain -- 48.0 47.3 97% 42 NA 29.68 M
5:55 am CDT N 13.8 G 19.6 7.00 Rain -- 49.0 48.6 97% 44 NA 29.66 M
4:55 am CDT N 10.4 5.00 Rain -- 49.0 48.6 97% 45 NA 29.67 M
3:55 am CDT NE 13.8 G 21.9 5.00 Rain -- 49.0 48.2 97% 44 NA 29.67 M
2:55 am CDT N 9.2 5.00 Heavy Rain 00.19 50.0 48.9 96% 46 NA 29.70 M
1:15 am CDT N 4.6 4.00 Heavy Rain -- 50.0 49.1 97% 48 NA 29.78 M
12:55 am CDT NE 4.6 4.00 Rain -- 50.0 48.7 95% 48 NA 29.79 M
11:55 pm CDT NE 4.6 5.00 Rain 00.11 49.0 48.6 97% 47 NA 29.82 M
10:55 pm CDT N 6.9 5.00 Light Rain -- 50.0 48.7 97% 47 NA 29.87 M

Regional Weather Observation


Flora Municipal Airport, IL (KFOA)

Overcast
45.0 F

Effingham, Effingham County Memorial Airport, IL (K1H2)

Overcast
45.0 F

Salem, Salem-Leckrone Airport, IL (KSLO)

Overcast
46.0 F

Fairfield, Fairfield Municipal Airport, IL (KFWC)

Overcast
46.0 F

Mattoon / Charleston, Coles County Memorial Airport, IL (KMTO)

Overcast
43.0 F

Mount Vernon Airport, IL (KMVN)

Mostly Cloudy
44.0 F